Location: Joplin
(37.0842°N, 94.5131°W)
Time: 15:01:32
(UTC-06:00)

ISS - Pass Details

Date: 23 January 2019
Orbit: 403 x 411 km, 51.6° (Epoch: 22 February)

Event Time Altitude Azimuth Distance (km) Brightness Sun altitude
Rises 19:15:23 0° 255° (WSW) 2,323 1.6 -20.3°
Reaches altitude 10° 19:17:40 10° 269° (W) 1,468 0.2 -20.8°
Maximum altitude 19:20:31 26° 329° (NNW) 842 -2.1 -21.4°
Enters shadow 19:20:50 26° 339° (NNW) 854 -2.1 -21.4°
